STARLINK-35923 (66641 NORAD) Tracking and Keplerian Element Data

This shows tracking and keplerian element data for the satellite.

Feedback or suggestion? Click here.




ElementValue
Catalog66641
NameSTARLINK-35923
Epoch Orbit532
Epoch Day353.94028537
Epoch Year2025
RAAN152.7027
Inclination53.1592
Eccentricity0.000193
Argument of Perigee3.5243
Mean Anonmoly356.5778
Mean Motion15.46730788
Decay Rate-0.00253595
L11 66641U 25271AA 25353.94028537 -.00253595 00000+0 -51441-2 0 9993
L22 66641 53.1592 152.7027 0001930 3.5243 356.5778 15.46730788 5324



Live tracking and technical data element details for STARLINK-35923 (NORAD 66641). STARLINK-35923 can be tracked NOW for your location showing map with azimuth and elevation plus other details from your city location.







IsCatalogInMostPopularTable: catalog: 66641, numindb: 21
Update: records affected: 1



GetName: 66641 STARLINK-35923

Hit Count: updated at: Tue, 21 Apr 2026 21:04:32 GMT